Location: Pardubice
(50.0330°N, 15.7830°E)
Time: 21:22:21
(UTC+01:00)

Vanguard 2 Rocket - Pass Details

Date: 15 October 2024
Orbit: 553 x 3297 km, 32.9° (Epoch: 01 November)

Event Time Altitude Azimuth Distance (km) Brightness Sun altitude
Rises 18:14:19 0° 231° (SW) 4,240 11.6 -2.3°
Reaches altitude 10° 18:19:34 10° 205° (SSW) 2,684 9.9 -3.1°
Maximum altitude 18:21:55 12° 182° (S) 2,282 9.1 -3.5°
Drops below altitude 10° 18:23:59 10° 158° (SSE) 2,252 8.8 -3.8°
Sets 18:27:28 0° 126° (SE) 2,900 9.1 -4.4°
